SMAP

Last updated on Mon Sep 07 2026 00:02:45 GMT+0000 (Coordinated Universal Time)

1 40376U 15003A 26249.58430361 .00000204 00000+0 48539-4 0 9990 2 40376 98.1314 255.5382 0001431 91.8864 268.2502 14.63365333619528
UTC large
Height (km)
Speed (km/s)
/
Latitude / Longitude
Inclination (degrees)
Orbital Period (minutes)
Azimuth
Elevation
Range (km)
Doppler Factor

Next 0 passes for location: London (51.5072 / 0.1276)

No passes found over London.
SMAP